Weather History for KUIN - August, 2013

Change the Weather History Date:

Monday, August 26, 2013

  Actual Average Record
Temperature  
Mean Temperature 81 °F 73 °F  
Max Temperature 95 °F 84 °F 105 °F (1936)
Min Temperature 66 °F 63 °F 46 °F (1910)
Degree Days  
Heating Degree Days 0 0  
Month to date heating degree days 2 0  
Since 1 June heating degree days 18 16  
Since 1 July heating degree days 6 0  
Cooling Degree Days 16 9  
Month to date cooling degree days 225 258  
Year to date cooling degree days 906 914  
Since 1 June cooling degree days 794 828  
Growing Degree Days 30 (Base 50)    
Moisture  
Dew Point 67 °F    
Average Humidity 65    
Maximum Humidity 93    
Minimum Humidity 36    
Precipitation  
Precipitation 0.00 in 0.12 in 3.06 in (1965)
Month to date precipitation 0.01 3.05  
Year to date precipitation 28.10 25.17  
Sea Level Pressure  
Sea Level Pressure 30.10 in    
Wind  
Wind Speed 7 mph (SSW)    
Max Wind Speed 16 mph    
Max Gust Speed 22 mph    
Visibility 9 miles    
Events      
T = Trace of Precipitation, MM = Missing Value Source: NWS Daily Summary

Daily Weather History Graph

Daily Weather History Graph

Search for Another Location

Airport or City:

Trip Planner

Search our weather history database for the weather conditions in past years. The results will help you decide how hot, cold, wet, or windy it might be!

Date:

Astronomy

Aug. 26, 2013 Rise Set
Actual Time 6:27 AM CDT 7:45 PM CDT
Civil Twilight 5:59 AM CDT 8:13 PM CDT
Nautical Twilight 5:25 AM CDT 8:46 PM CDT
Astronomical Twilight 4:49 AM CDT 9:21 PM CDT
Moon 10:56 PM CDT (8/26) 12:28 PM CDT (8/26)
Length of Visible Light 14h 14m
Length of Day
13h 17m
Waning Gibbous, 66% of the Moon is Illuminated
Aug 26
Waning Gibbous
Aug 28
Last Quarter
Sep 5
New
Sep 12
First Quarter
Sep 19
Full

Hourly Weather History & Observations

Time (CDT) Temp. Heat Index Dew Point Humidity Pressure Visibility Wind Dir Wind Speed Gust Speed Precip Events Conditions
12:54 AM 73.0 °F - 64.0 °F 73% 30.15 in 10.0 mi South 4.6 mph - N/A   Clear
1:54 AM 72.0 °F - 64.0 °F 76% 30.15 in 10.0 mi South 4.6 mph - N/A   Clear
2:54 AM 70.0 °F - 64.0 °F 81% 30.14 in 10.0 mi South 5.8 mph - N/A   Clear
3:54 AM 69.1 °F - 63.0 °F 81% 30.14 in 10.0 mi South 4.6 mph - N/A   Clear
4:54 AM 66.0 °F - 62.1 °F 87% 30.14 in 9.0 mi South 4.6 mph - N/A   Clear
5:54 AM 66.9 °F - 64.0 °F 90% 30.15 in 6.0 mi SSW 5.8 mph - N/A   Clear
6:54 AM 68.0 °F - 64.9 °F 90% 30.16 in 5.0 mi SSW 6.9 mph - N/A   Clear
7:54 AM 73.0 °F - 68.0 °F 84% 30.17 in 7.0 mi SSW 6.9 mph - N/A   Clear
8:54 AM 79.0 °F - 69.1 °F 72% 30.17 in 9.0 mi SW 8.1 mph - N/A   Clear
9:54 AM 82.9 °F 87.0 °F 70.0 °F 65% 30.17 in 10.0 mi Variable 6.9 mph - N/A   Clear
10:54 AM 88.0 °F 92.9 °F 70.0 °F 55% 30.16 in 10.0 mi SW 6.9 mph - N/A   Clear
11:54 AM 89.1 °F 95.0 °F 71.1 °F 55% 30.14 in 10.0 mi West 6.9 mph - N/A   Clear
12:54 PM 91.9 °F 97.4 °F 70.0 °F 48% 30.12 in 10.0 mi SSW 8.1 mph - N/A   Scattered Clouds
1:54 PM 93.0 °F 97.9 °F 69.1 °F 45% 30.09 in 10.0 mi South 11.5 mph - N/A   Partly Cloudy
2:54 PM 95.0 °F 97.4 °F 64.9 °F 37% 30.07 in 10.0 mi SW 12.7 mph 19.6 mph N/A   Partly Cloudy
3:54 PM 93.9 °F 97.0 °F 66.0 °F 40% 30.06 in 10.0 mi SSW 12.7 mph 21.9 mph N/A   Partly Cloudy
4:54 PM 93.9 °F 97.5 °F 66.9 °F 41% 30.06 in 10.0 mi WSW 10.4 mph - N/A   Clear
5:54 PM 91.9 °F 94.1 °F 64.9 °F 41% 30.04 in 10.0 mi SW 8.1 mph - N/A   Clear
6:54 PM 90.0 °F 93.6 °F 68.0 °F 48% 30.03 in 10.0 mi SW 5.8 mph - N/A   Clear
7:54 PM 82.9 °F 85.8 °F 68.0 °F 60% 30.03 in 10.0 mi SSW 5.8 mph - N/A   Clear
8:54 PM 80.1 °F 82.3 °F 66.9 °F 64% 30.02 in 10.0 mi SSW 6.9 mph - N/A   Clear
9:54 PM 80.1 °F 82.3 °F 66.9 °F 64% 30.01 in 10.0 mi SSW 6.9 mph - N/A   Clear
10:54 PM 75.9 °F - 66.9 °F 74% 30.03 in 10.0 mi SSW 4.6 mph - N/A   Clear
11:54 PM 75.9 °F - 68.0 °F 76% 30.04 in 10.0 mi SSW 5.8 mph - N/A   Clear